,,Stat6,,Stat2,,Stat8,,Stat9,,Stat10,,Wind1,,Wind1,
time,status,PA1M_AVG,status,PR1M_SUM,status,RH1M_AVG,status,SR1M_AVG,status,TA1M_AVG,status,W1dAve1m,status,W1sAve1m,
2008-04-24, 00:00:00,VALID,917.019,VALID,0,VALID,100,VALID,0,VALID,20.1873,VALID,353,VALID,0.110978,
2008-04-24, 00:01:00,VALID,917.013,VALID,0,VALID,100,VALID,0.0169808,VALID,20.1616,VALID,356,VALID,1.1577,
2008-04-24, 00:02:00,VALID,917.023,VALID,0,VALID,100,VALID,0.0339617,VALID,20.1484,VALID,12,VALID,0.773624,
2008-04-24, 00:03:00,VALID,917.037,VALID,0,VALID,100,VALID,0.0339617,VALID,20.1454,VALID,5,VALID,0.0753997,
2008-04-24, 00:04:00,VALID,917.035,VALID,0,VALID,100,VALID,0.0339617,VALID,20.1389,VALID,3,VALID,0.979297,
2008-04-24, 00:05:00,VALID,917.058,VALID,0,VALID,100,VALID,-0.0169808,VALID,20.1461,VALID,21,VALID,0.0463542,
2008-04-24, 00:06:00,VALID,917.068,VALID,0,VALID,100,VALID,-0.0849042,VALID,20.1571,VALID,20,VALID,0,
2008-04-24, 00:07:00,VALID,917.065,VALID,0,VALID,100,VALID,-0.101885,VALID,20.1434,VALID,19,VALID,0.931818,
2008-04-24, 00:08:00,VALID,917.074,VALID,0,VALID,100,VALID,-0.0509425,VALID,20.1339,VALID,19,VALID,1.51504,
2008-04-24, 00:09:00,VALID,917.082,VALID,0,VALID,100,VALID,-0.0509425,VALID,20.1466,VALID,29,VALID,1.27493,
2008-04-24, 00:10:00,VALID,917.092,VALID,0,VALID,100,VALID,-0.0339617,VALID,20.1501,VALID,12,VALID,0.91847,
2008-04-24, 00:11:00,VALID,917.094,VALID,0,VALID,100,VALID,-0.0679233,VALID,20.1337,VALID,2,VALID,0.860085,
2008-04-24, 00:12:00,VALID,917.111,VALID,0,VALID,100,VALID,-0.0509425,VALID,20.1302,VALID,14,VALID,0.34446,
2008-04-24, 00:13:00,VALID,917.138,VALID,0,VALID,100,VALID,-0.0679233,VALID,20.1339,VALID,1,VALID,0.613542,
2008-04-24, 00:14:00,VALID,917.138,VALID,0,VALID,100,VALID,-0.0849042,VALID,20.1274,VALID,2,VALID,0.498884,
2008-04-24, 00:15:00,VALID,917.129,VALID,0,VALID,100,VALID,-0.118866,VALID,20.1342,VALID,30,VALID,0.445126,
2008-04-24, 00:16:00,VALID,917.114,VALID,0,VALID,100,VALID,-0.0679233,VALID,20.1466,VALID,33,VALID,0.367969,
2008-04-24, 00:17:00,VALID,917.084,VALID,0,VALID,100,VALID,-0.101885,VALID,20.1826,VALID,20,VALID,0.226563,
2008-04-24, 00:18:00,VALID,917.058,VALID,0,VALID,100,VALID,-0.0509425,VALID,20.1826,VALID,16,VALID,0,
2008-04-24, 00:19:00,VALID,917.049,VALID,0,VALID,100,VALID,-0.0509425,VALID,20.1856,VALID,18,VALID,0,
2008-04-24, 00:20:00,VALID,917.017,VALID,0,VALID,100,VALID,-0.0169808,VALID,20.1751,VALID,201,VALID,0,
2008-04-24, 00:21:00,VALID,916.989,VALID,0,VALID,100,VALID,0.0169808,VALID,20.1748,VALID,198,VALID,0,
2008-04-24, 00:22:00,VALID,916.969,VALID,0,VALID,100,VALID,0.0339617,VALID,20.194,VALID,72,VALID,0.25957,
2008-04-24, 00:23:00,VALID,916.95,VALID,0,VALID,100,VALID,0.0169808,VALID,20.2005,VALID,34,VALID,0.406605,
2008-04-24, 00:24:00,VALID,916.926,VALID,0,VALID,100,VALID,0,VALID,20.204,VALID,32,VALID,1.76097,
2008-04-24, 00:25:00,VALID,916.897,VALID,0,VALID,100,VALID,0.0339617,VALID,20.22,VALID,33,VALID,2.0338,
2008-04-24, 00:26:00,VALID,916.847,VALID,0,VALID,100,VALID,0.0339617,VALID,20.2068,VALID,32,VALID,1.88872,
2008-04-24, 00:27:00,VALID,916.847,VALID,0,VALID,100,VALID,0.0339617,VALID,20.1908,VALID,26,VALID,1.71548,
2008-04-24, 00:28:00,VALID,916.832,VALID,0,VALID,100,VALID,0.0169808,VALID,20.1778,VALID,25,VALID,1.14289,
2008-04-24, 00:29:00,VALID,916.839,VALID,0,VALID,100,VALID,0.0169808,VALID,20.1676,VALID,26,VALID,0.177083,
2008-04-24, 00:30:00,VALID,916.867,VALID,0,VALID,100,VALID,0.0339617,VALID,20.1778,VALID,34,VALID,1.0645,
2008-04-24, 00:31:00,VALID,916.893,VALID,0,VALID,100,VALID,0,VALID,20.1905,VALID,32,VALID,1.34666,
2008-04-24, 00:32:00,VALID,916.889,VALID,0,VALID,100,VALID,0.0509425,VALID,20.1938,VALID,28,VALID,0.772879,
2008-04-24, 00:33:00,VALID,916.885,VALID,0,VALID,100,VALID,0.0849042,VALID,20.1873,VALID,27,VALID,0.277248,
2008-04-24, 00:34:00,VALID,916.903,VALID,0,VALID,100,VALID,0.0169808,VALID,20.194,VALID,29,VALID,0.104514,
2008-04-24, 00:35:00,VALID,916.89,VALID,0,VALID,100,VALID,0.0339617,VALID,20.2035,VALID,30,VALID,0.0950521,
2008-04-24, 00:36:00,VALID,916.859,VALID,0,VALID,100,VALID,0,VALID,20.2005,VALID,22,VALID,0.254764,
2008-04-24, 00:37:00,VALID,916.831,VALID,0,VALID,100,VALID,0.0169808,VALID,20.1806,VALID,25,VALID,0.189904,
2008-04-24, 00:38:00,VALID,916.787,VALID,0,VALID,100,VALID,0,VALID,20.1911,VALID,24,VALID,0.11238,
2008-04-24, 00:39:00,VALID,916.762,VALID,0,VALID,100,VALID,0,VALID,20.1578,VALID,20,VALID,0.00457317,
2008-04-24, 00:40:00,VALID,916.759,VALID,0,VALID,100,VALID,0,VALID,20.1678,VALID,20,VALID,0.144531,
2008-04-24, 00:41:00,VALID,916.76,VALID,0,VALID,100,VALID,0,VALID,20.1454,VALID,19,VALID,0.00234375,
2008-04-24, 00:42:00,VALID,916.734,VALID,0,VALID,100,VALID,0,VALID,20.1421,VALID,21,VALID,0.127096,
2008-04-24, 00:43:00,VALID,916.721,VALID,0,VALID,100,VALID,0.0509425,VALID,20.1284,VALID,15,VALID,1.15057,
2008-04-24, 00:44:00,VALID,916.693,VALID,0,VALID,100,VALID,0.0169808,VALID,20.1256,VALID,17,VALID,1.62934,
2008-04-24, 00:45:00,VALID,916.7,VALID,0,VALID,100,VALID,0.0169808,VALID,20.1354,VALID,353,VALID,1.09909,
2008-04-24, 00:46:00,VALID,916.718,VALID,0,VALID,100,VALID,0,VALID,20.1454,VALID,22,VALID,1.48307,
2008-04-24, 00:47:00,VALID,916.724,VALID,0,VALID,100,VALID,0.0679233,VALID,20.1349,VALID,7,VALID,1.30191,
2008-04-24, 00:48:00,VALID,916.714,VALID,0,VALID,100,VALID,0.0509425,VALID,20.1416,VALID,337,VALID,0.620703,
2008-04-24, 00:49:00,VALID,916.728,VALID,0,VALID,100,VALID,0.0169808,VALID,20.1451,VALID,315,VALID,0,
2008-04-24, 00:50:00,VALID,916.704,VALID,0,VALID,100,VALID,0.0679233,VALID,20.1578,VALID,250,VALID,0.0679687,
2008-04-24, 00:51:00,VALID,916.679,VALID,0,VALID,100,VALID,0.0339617,VALID,20.1773,VALID,330,VALID,0.0502232,
2008-04-24, 00:52:00,VALID,916.657,VALID,0,VALID,100,VALID,-0.0169808,VALID,20.2033,VALID,32,VALID,0,
2008-04-24, 00:53:00,VALID,916.612,VALID,0,VALID,100,VALID,0.0339617,VALID,20.1965,VALID,298,VALID,0.152521,
2008-04-24, 00:54:00,VALID,916.582,VALID,0,VALID,100,VALID,0.0339617,VALID,20.2133,VALID,303,VALID,0,
2008-04-24, 00:55:00,VALID,916.562,VALID,0,VALID,100,VALID,0.0169808,VALID,20.2003,VALID,3,VALID,0,
2008-04-24, 00:56:00,VALID,916.529,VALID,0,VALID,100,VALID,0.0509425,VALID,20.1973,VALID,30,VALID,0,
2008-04-24, 00:57:00,VALID,916.51,VALID,0,VALID,100,VALID,0,VALID,20.2163,VALID,24,VALID,0,
2008-04-24, 00:58:00,VALID,916.507,VALID,0,VALID,100,VALID,0.0169808,VALID,20.2192,VALID,43,VALID,0,
2008-04-24, 00:59:00,VALID,916.497,VALID,0,VALID,100,VALID,0,VALID,20.2427,VALID,39,VALID,0,
2008-04-24, 01:00:00,VALID,916.489,VALID,0,VALID,100,VALID,0.0169808,VALID,20.2427,VALID,31,VALID,0,
2008-04-24, 01:01:00,VALID,916.477,VALID,0,VALID,100,VALID,0.0169808,VALID,20.2362,VALID,31,VALID,0,
2008-04-24, 01:02:00,VALID,916.469,VALID,0,VALID,100,VALID,0.0169808,VALID,20.2262,VALID,31,VALID,0,
2008-04-24, 01:03:00,VALID,916.448,VALID,0,VALID,100,VALID,0.0169808,VALID,20.2157,VALID,35,VALID,0,
2008-04-24, 01:04:00,VALID,916.464,VALID,0,VALID,100,VALID,0.0169808,VALID,20.2297,VALID,28,VALID,0.147892,
2008-04-24, 01:05:00,VALID,916.444,VALID,0,VALID,100,VALID,0,VALID,20.2392,VALID,34,VALID,0,
2008-04-24, 01:06:00,VALID,916.441,VALID,0,VALID,100,VALID,0,VALID,20.2422,VALID,17,VALID,0,
2008-04-24, 01:07:00,VALID,916.422,VALID,0,VALID,100,VALID,0.0169808,VALID,20.2457,VALID,28,VALID,0.03125,
2008-04-24, 01:08:00,VALID,916.417,VALID,0,VALID,100,VALID,0.0169808,VALID,20.2425,VALID,28,VALID,0,
2008-04-24, 01:09:00,VALID,916.415,VALID,0,VALID,100,VALID,0.0509425,VALID,20.2292,VALID,26,VALID,0,
2008-04-24, 01:10:00,VALID,916.394,VALID,0,VALID,100,VALID,0.0849042,VALID,20.2192,VALID,24,VALID,0.0839844,
2008-04-24, 01:11:00,VALID,916.383,VALID,0,VALID,100,VALID,0.0679233,VALID,20.2098,VALID,15,VALID,0.150213,
2008-04-24, 01:12:00,VALID,916.364,VALID,0,VALID,100,VALID,0.0169808,VALID,20.2157,VALID,27,VALID,0.00763081,
2008-04-24, 01:13:00,VALID,916.338,VALID,0,VALID,100,VALID,0.0339617,VALID,20.2133,VALID,21,VALID,0.702172,
2008-04-24, 01:14:00,VALID,916.321,VALID,0,VALID,100,VALID,0,VALID,20.21,VALID,355,VALID,1.11923,
2008-04-24, 01:15:00,VALID,916.289,VALID,0,VALID,100,VALID,0,VALID,20.2005,VALID,4,VALID,1.24276,
2008-04-24, 01:16:00,VALID,916.272,VALID,0,VALID,100,VALID,0.0509425,VALID,20.217,VALID,4,VALID,1.3157,
2008-04-24, 01:17:00,VALID,916.261,VALID,0,VALID,100,VALID,-0.0169808,VALID,20.2265,VALID,33,VALID,0.791371,
2008-04-24, 01:18:00,VALID,916.254,VALID,0,VALID,100,VALID,0.0169808,VALID,20.2357,VALID,16,VALID,0.775073,
2008-04-24, 01:19:00,VALID,916.259,VALID,0,VALID,100,VALID,0.0509425,VALID,20.236,VALID,19,VALID,0.397693,
2008-04-24, 01:20:00,VALID,916.263,VALID,0.2,VALID,100,VALID,0.0339617,VALID,20.2457,VALID,22,VALID,0,
2008-04-24, 01:21:00,VALID,916.271,VALID,0,VALID,100,VALID,0.0169808,VALID,20.259,VALID,28,VALID,0,
2008-04-24, 01:22:00,VALID,916.262,VALID,0,VALID,100,VALID,0.0169808,VALID,20.249,VALID,28,VALID,0,
2008-04-24, 01:23:00,VALID,916.246,VALID,0.2,VALID,100,VALID,0.0509425,VALID,20.2587,VALID,24,VALID,0,
2008-04-24, 01:24:00,VALID,916.267,VALID,0,VALID,100,VALID,0.0679233,VALID,20.2452,VALID,16,VALID,0,
2008-04-24, 01:25:00,VALID,916.26,VALID,0,VALID,100,VALID,0,VALID,20.2457,VALID,16,VALID,0,
2008-04-24, 01:26:00,VALID,916.211,VALID,0,VALID,100,VALID,0.0339617,VALID,20.2422,VALID,30,VALID,0.635417,
2008-04-24, 01:27:00,VALID,916.227,VALID,0,VALID,100,VALID,0.0169808,VALID,20.2584,VALID,21,VALID,1.33926,
2008-04-24, 01:28:00,VALID,916.26,VALID,0.2,VALID,100,VALID,0.0339617,VALID,20.2617,VALID,30,VALID,1.3105,
2008-04-24, 01:29:00,VALID,916.273,VALID,0.2,VALID,100,VALID,0.0169808,VALID,20.2514,VALID,28,VALID,1.38951,
2008-04-24, 01:30:00,VALID,916.244,VALID,0.2,VALID,100,VALID,0.0509425,VALID,20.2425,VALID,23,VALID,1.33363,
2008-04-24, 01:31:00,VALID,916.253,VALID,0,VALID,100,VALID,0.0509425,VALID,20.2322,VALID,41,VALID,0.0152439,
2008-04-24, 01:32:00,VALID,916.253,VALID,0.2,VALID,100,VALID,0.0339617,VALID,20.2227,VALID,34,VALID,0,
2008-04-24, 01:33:00,VALID,916.23,VALID,0,VALID,100,VALID,0.0169808,VALID,20.2227,VALID,40,VALID,0,
2008-04-24, 01:34:00,VALID,916.195,VALID,0,VALID,100,VALID,0.0339617,VALID,20.2233,VALID,28,VALID,1.35649,
2008-04-24, 01:35:00,VALID,916.205,VALID,0,VALID,100,VALID,-0.0169808,VALID,20.2262,VALID,91,VALID,0.240091,
2008-04-24, 01:36:00,VALID,916.196,VALID,0.2,VALID,100,VALID,0,VALID,20.2268,VALID,163,VALID,0.239329,
2008-04-24, 01:37:00,VALID,916.161,VALID,0,VALID,100,VALID,-0.0169808,VALID,20.214,VALID,205,VALID,0,
2008-04-24, 01:38:00,VALID,916.154,VALID,0,VALID,100,VALID,0,VALID,20.1878,VALID,142,VALID,0,
2008-04-24, 01:39:00,VALID,916.183,VALID,0,VALID,100,VALID,-0.0169808,VALID,20.1846,VALID,138,VALID,0,
2008-04-24, 01:40:00,VALID,916.19,VALID,0,VALID,100,VALID,-0.0339617,VALID,20.1813,VALID,65,VALID,0,
2008-04-24, 01:41:00,VALID,916.193,VALID,0,VALID,100,VALID,-0.0169808,VALID,20.1781,VALID,112,VALID,0.308594,
2008-04-24, 01:42:00,VALID,916.193,VALID,0,VALID,100,VALID,-0.0169808,VALID,20.1716,VALID,168,VALID,0.230469,
2008-04-24, 01:43:00,VALID,916.19,VALID,0,VALID,100,VALID,-0.0509425,VALID,20.1908,VALID,86,VALID,0,
2008-04-24, 01:44:00,VALID,916.208,VALID,0,VALID,100,VALID,-0.0169808,VALID,20.2108,VALID,86,VALID,0,
2008-04-24, 01:45:00,VALID,916.215,VALID,0,VALID,100,VALID,-0.0169808,VALID,20.2103,VALID,86,VALID,0,
2008-04-24, 01:46:00,VALID,916.2,VALID,0,VALID,100,VALID,-0.0679233,VALID,20.204,VALID,86,VALID,0,
2008-04-24, 01:47:00,VALID,916.176,VALID,0,VALID,100,VALID,-0.0679233,VALID,20.1975,VALID,74,VALID,0,
2008-04-24, 01:48:00,VALID,916.138,VALID,0,VALID,100,VALID,-0.0169808,VALID,20.2008,VALID,348,VALID,0,
2008-04-24, 01:49:00,VALID,916.105,VALID,0,VALID,100,VALID,-0.0509425,VALID,20.2238,VALID,25,VALID,0.0472384,
2008-04-24, 01:50:00,VALID,916.104,VALID,0,VALID,100,VALID,-0.0339617,VALID,20.2265,VALID,89,VALID,0,
2008-04-24, 01:51:00,VALID,916.097,VALID,0,VALID,100,VALID,-0.0339617,VALID,20.2175,VALID,102,VALID,0.00872093,
2008-04-24, 01:52:00,VALID,916.08,VALID,0,VALID,100,VALID,-0.0679233,VALID,20.2205,VALID,87,VALID,0,
2008-04-24, 01:53:00,VALID,916.067,VALID,0.2,VALID,100,VALID,-0.0169808,VALID,20.23,VALID,87,VALID,0,
2008-04-24, 01:54:00,VALID,916.034,VALID,0,VALID,100,VALID,-0.0509425,VALID,20.2627,VALID,87,VALID,0,
2008-04-24, 01:55:00,VALID,915.993,VALID,0,VALID,100,VALID,-0.0849042,VALID,20.2795,VALID,78,VALID,0,
2008-04-24, 01:56:00,VALID,915.955,VALID,0,VALID,100,VALID,-0.0509425,VALID,20.266,VALID,27,VALID,0,
2008-04-24, 01:57:00,VALID,915.902,VALID,0,VALID,100,VALID,-0.0169808,VALID,20.273,VALID,30,VALID,0.0572266,
2008-04-24, 01:58:00,VALID,915.875,VALID,0,VALID,100,VALID,-0.0509425,VALID,20.266,VALID,30,VALID,0.00669643,
2008-04-24, 01:59:00,VALID,915.873,VALID,0,VALID,100,VALID,-0.0339617,VALID,20.2495,VALID,30,VALID,0,
2008-04-24, 02:00:00,VALID,915.861,VALID,0,VALID,100,VALID,-0.0509425,VALID,20.2405,VALID,37,VALID,0,
2008-04-24, 02:01:00,VALID,915.847,VALID,0,VALID,100,VALID,-0.0849042,VALID,20.2268,VALID,148,VALID,0,
2008-04-24, 02:02:00,VALID,915.791,VALID,0,VALID,100,VALID,-0.0679233,VALID,20.2405,VALID,77,VALID,0.0379464,
2008-04-24, 02:03:00,VALID,915.779,VALID,0,VALID,100,VALID,-0.0849042,VALID,20.2373,VALID,34,VALID,0.246366,
2008-04-24, 02:04:00,VALID,915.767,VALID,0,VALID,100,VALID,-0.0679233,VALID,20.2238,VALID,31,VALID,0,
2008-04-24, 02:05:00,VALID,915.75,VALID,0,VALID,100,VALID,-0.0679233,VALID,20.2405,VALID,35,VALID,0,
2008-04-24, 02:06:00,VALID,915.741,VALID,0,VALID,100,VALID,-0.0169808,VALID,20.2303,VALID,28,VALID,0,
2008-04-24, 02:07:00,VALID,915.718,VALID,0,VALID,100,VALID,-0.0509425,VALID,20.2438,VALID,28,VALID,0,
2008-04-24, 02:08:00,VALID,915.724,VALID,0,VALID,100,VALID,-0.0679233,VALID,20.2397,VALID,28,VALID,0,
2008-04-24, 02:09:00,VALID,915.713,VALID,0.2,VALID,100,VALID,-0.0339617,VALID,20.2338,VALID,28,VALID,0,
2008-04-24, 02:10:00,VALID,915.686,VALID,0,VALID,100,VALID,-0.0339617,VALID,20.2335,VALID,30,VALID,0,
2008-04-24, 02:11:00,VALID,915.675,VALID,0,VALID,100,VALID,-0.0169808,VALID,20.2297,VALID,31,VALID,0,
2008-04-24, 02:12:00,VALID,915.666,VALID,0,VALID,100,VALID,-0.0339617,VALID,20.2365,VALID,31,VALID,0,
2008-04-24, 02:13:00,VALID,915.647,VALID,0,VALID,100,VALID,-0.0509425,VALID,20.237,VALID,30,VALID,0,
2008-04-24, 02:14:00,VALID,915.632,VALID,0,VALID,100,VALID,-0.0679233,VALID,20.2235,VALID,27,VALID,1.29074,
2008-04-24, 02:15:00,VALID,915.612,VALID,0,VALID,100,VALID,-0.0169808,VALID,20.2338,VALID,331,VALID,0.0661458,
2008-04-24, 02:16:00,VALID,915.603,VALID,0.2,VALID,100,VALID,-0.0509425,VALID,20.2038,VALID,16,VALID,0.567522,
2008-04-24, 02:17:00,VALID,915.54,VALID,0.2,VALID,100,VALID,-0.0509425,VALID,20.1659,VALID,18,VALID,1.85213,
2008-04-24, 02:18:00,VALID,915.524,VALID,0.2,VALID,100,VALID,-0.0339617,VALID,20.1359,VALID,47,VALID,0.851367,
2008-04-24, 02:19:00,VALID,915.58,VALID,0,VALID,100,VALID,-0.0339617,VALID,20.1137,VALID,356,VALID,0.6875,
2008-04-24, 02:20:00,VALID,915.617,VALID,0.2,VALID,100,VALID,0.0169808,VALID,20.0899,VALID,25,VALID,2.37109,
2008-04-24, 02:21:00,VALID,915.613,VALID,0.2,VALID,100,VALID,0.0339617,VALID,20.0924,VALID,28,VALID,2.01563,
2008-04-24, 02:22:00,VALID,915.628,VALID,0,VALID,100,VALID,0,VALID,20.1154,VALID,19,VALID,1.25527,
2008-04-24, 02:23:00,VALID,915.665,VALID,0.2,VALID,100,VALID,0.0679233,VALID,20.1157,VALID,311,VALID,0.214748,
2008-04-24, 02:24:00,VALID,915.656,VALID,0,VALID,100,VALID,0.0849042,VALID,20.1084,VALID,214,VALID,0,
2008-04-24, 02:25:00,VALID,915.649,VALID,0.2,VALID,100,VALID,0.0679233,VALID,20.0922,VALID,3,VALID,0,
2008-04-24, 02:26:00,VALID,915.633,VALID,0,VALID,100,VALID,0.0679233,VALID,20.1024,VALID,117,VALID,0.270894,
2008-04-24, 02:27:00,VALID,915.599,VALID,0,VALID,100,VALID,0.0679233,VALID,20.0892,VALID,207,VALID,0.107376,
2008-04-24, 02:28:00,VALID,915.534,VALID,0,VALID,100,VALID,0.0339617,VALID,20.0894,VALID,73,VALID,0.775391,
2008-04-24, 02:29:00,VALID,915.527,VALID,0,VALID,100,VALID,0.0509425,VALID,20.0889,VALID,350,VALID,0.187863,
2008-04-24, 02:30:00,VALID,915.523,VALID,0.2,VALID,100,VALID,0.0679233,VALID,20.0989,VALID,203,VALID,0.369141,
2008-04-24, 02:31:00,VALID,915.554,VALID,0,VALID,100,VALID,0,VALID,20.0864,VALID,226,VALID,0.546875,
2008-04-24, 02:32:00,VALID,915.501,VALID,0.2,VALID,100,VALID,0.0509425,VALID,20.0705,VALID,243,VALID,0.182292,
2008-04-24, 02:33:00,VALID,915.466,VALID,0,VALID,100,VALID,0.0509425,VALID,20.0632,VALID,329,VALID,0.201936,
2008-04-24, 02:34:00,VALID,915.455,VALID,0,VALID,100,VALID,0.0339617,VALID,20.0737,VALID,5,VALID,0.897711,
2008-04-24, 02:35:00,VALID,915.481,VALID,0.2,VALID,100,VALID,0.0509425,VALID,20.0537,VALID,32,VALID,1.68312,
2008-04-24, 02:36:00,VALID,915.503,VALID,0,VALID,100,VALID,0.0679233,VALID,20.0508,VALID,48,VALID,1.28634,
2008-04-24, 02:37:00,VALID,915.506,VALID,0,VALID,100,VALID,0,VALID,20.0478,VALID,30,VALID,2.09468,
2008-04-24, 02:38:00,VALID,915.528,VALID,0.2,VALID,100,VALID,0.0509425,VALID,20.051,VALID,34,VALID,0.801847,
2008-04-24, 02:39:00,VALID,915.531,VALID,0,VALID,100,VALID,0.0339617,VALID,20.0443,VALID,12,VALID,1.20722,
2008-04-24, 02:40:00,VALID,915.511,VALID,0,VALID,100,VALID,0.0679233,VALID,19.9916,VALID,30,VALID,0.694727,
2008-04-24, 02:41:00,VALID,915.528,VALID,0.2,VALID,100,VALID,0.0509425,VALID,19.9853,VALID,47,VALID,0,
2008-04-24, 02:42:00,VALID,915.535,VALID,0,VALID,100,VALID,0.0679233,VALID,19.9883,VALID,141,VALID,0.181445,
2008-04-24, 02:43:00,VALID,915.555,VALID,0,VALID,100,VALID,0.0849042,VALID,19.9881,VALID,105,VALID,0.107813,
2008-04-24, 02:44:00,VALID,915.536,VALID,0,VALID,100,VALID,0.0849042,VALID,19.9946,VALID,14,VALID,0.146019,
2008-04-24, 02:45:00,VALID,915.55,VALID,0,VALID,100,VALID,0.0679233,VALID,19.9881,VALID,73,VALID,0.933681,
2008-04-24, 02:46:00,VALID,915.538,VALID,0,VALID,100,VALID,0.0679233,VALID,19.9916,VALID,92,VALID,0.650112,
2008-04-24, 02:47:00,VALID,915.543,VALID,0.2,VALID,100,VALID,0.0849042,VALID,19.9786,VALID,128,VALID,0.0504092,
2008-04-24, 02:48:00,VALID,915.515,VALID,0,VALID,100,VALID,0.0849042,VALID,19.9586,VALID,190,VALID,0.193824,
2008-04-24, 02:49:00,VALID,915.508,VALID,0,VALID,100,VALID,0.0509425,VALID,19.9496,VALID,239,VALID,0.492759,
2008-04-24, 02:50:00,VALID,915.5,VALID,0.2,VALID,100,VALID,-0.0509425,VALID,19.9374,VALID,230,VALID,0.706597,
2008-04-24, 02:51:00,VALID,915.522,VALID,0,VALID,100,VALID,-0.0849042,VALID,19.9384,VALID,294,VALID,0.370139,
2008-04-24, 02:52:00,VALID,915.534,VALID,0.2,VALID,100,VALID,0,VALID,19.9322,VALID,340,VALID,0.659489,
2008-04-24, 02:53:00,VALID,915.57,VALID,0.6,VALID,100,VALID,-0.0679233,VALID,19.9152,VALID,248,VALID,0.568638,
2008-04-24, 02:54:00,VALID,915.513,VALID,0.8,VALID,100,VALID,-0.0509425,VALID,19.9055,VALID,205,VALID,0.534766,
2008-04-24, 02:55:00,VALID,915.485,VALID,0.6,VALID,100,VALID,-0.0509425,VALID,19.8763,VALID,218,VALID,1.29669,
2008-04-24, 02:56:00,VALID,915.483,VALID,0.2,VALID,100,VALID,-0.0509425,VALID,19.8276,VALID,264,VALID,1.65607,
2008-04-24, 02:57:00,VALID,915.521,VALID,0.2,VALID,100,VALID,-0.0509425,VALID,19.763,VALID,266,VALID,1.76493,
2008-04-24, 02:58:00,VALID,915.513,VALID,0.2,VALID,100,VALID,-0.0509425,VALID,19.7235,VALID,280,VALID,1.85938,
2008-04-24, 02:59:00,VALID,915.519,VALID,0.2,VALID,100,VALID,-0.0509425,VALID,19.7073,VALID,272,VALID,0.228566,
2008-04-24, 03:00:00,VALID,915.525,VALID,0,VALID,100,VALID,-0.0679233,VALID,19.7108,VALID,288,VALID,0,
2008-04-24, 03:01:00,VALID,915.545,VALID,0,VALID,100,VALID,-0.0169808,VALID,19.7175,VALID,287,VALID,0,
2008-04-24, 03:02:00,VALID,915.545,VALID,0,VALID,100,VALID,-0.0509425,VALID,19.7073,VALID,28,VALID,0.5625,
2008-04-24, 03:03:00,VALID,915.526,VALID,0.2,VALID,100,VALID,0,VALID,19.7008,VALID,344,VALID,1.00852,
2008-04-24, 03:04:00,VALID,915.494,VALID,0,VALID,100,VALID,-0.0509425,VALID,19.6976,VALID,332,VALID,1.95185,
2008-04-24, 03:05:00,VALID,915.521,VALID,0,VALID,100,VALID,-0.0509425,VALID,19.7073,VALID,226,VALID,0.409091,
2008-04-24, 03:06:00,VALID,915.486,VALID,0,VALID,100,VALID,-0.0169808,VALID,19.7043,VALID,188,VALID,0.223214,
2008-04-24, 03:07:00,VALID,915.485,VALID,0,VALID,100,VALID,-0.0169808,VALID,19.7043,VALID,285,VALID,0.370722,
2008-04-24, 03:08:00,VALID,915.48,VALID,0,VALID,100,VALID,-0.0339617,VALID,19.717,VALID,357,VALID,0.193266,
2008-04-24, 03:09:00,VALID,915.471,VALID,0,VALID,100,VALID,-0.0679233,VALID,19.7235,VALID,340,VALID,0.0390625,
2008-04-24, 03:10:00,VALID,915.477,VALID,0,VALID,100,VALID,-0.0339617,VALID,19.717,VALID,342,VALID,0,
2008-04-24, 03:11:00,VALID,915.507,VALID,0,VALID,100,VALID,-0.0339617,VALID,19.7173,VALID,236,VALID,0,
2008-04-24, 03:12:00,VALID,915.468,VALID,0,VALID,100,VALID,-0.0509425,VALID,19.7238,VALID,132,VALID,0.550595,
2008-04-24, 03:13:00,VALID,915.484,VALID,0,VALID,100,VALID,-0.0679233,VALID,19.734,VALID,19,VALID,0.892805,
2008-04-24, 03:14:00,VALID,915.431,VALID,0,VALID,100,VALID,-0.0679233,VALID,19.75,VALID,29,VALID,1.03542,
2008-04-24, 03:15:00,VALID,915.383,VALID,0,VALID,100,VALID,-0.0339617,VALID,19.727,VALID,341,VALID,1.62138,
2008-04-24, 03:16:00,VALID,915.401,VALID,0,VALID,100,VALID,-0.0339617,VALID,19.7275,VALID,158,VALID,0.456352,
2008-04-24, 03:17:00,VALID,915.371,VALID,0,VALID,100,VALID,-0.0849042,VALID,19.7238,VALID,61,VALID,0.166061,
2008-04-24, 03:18:00,VALID,915.402,VALID,0,VALID,100,VALID,0,VALID,19.7265,VALID,209,VALID,0.817708,
2008-04-24, 03:19:00,VALID,915.392,VALID,0,VALID,100,VALID,0,VALID,19.743,VALID,68,VALID,1.12695,
2008-04-24, 03:20:00,VALID,915.367,VALID,0,VALID,100,VALID,0,VALID,19.7552,VALID,26,VALID,2.56771,
2008-04-24, 03:21:00,VALID,915.359,VALID,0,VALID,100,VALID,0.0169808,VALID,19.7417,VALID,3,VALID,2.09863,
2008-04-24, 03:22:00,VALID,915.391,VALID,0,VALID,100,VALID,0,VALID,19.7417,VALID,21,VALID,2.05332,
2008-04-24, 03:23:00,VALID,915.41,VALID,0.2,VALID,100,VALID,0,VALID,19.755,VALID,54,VALID,0.639063,
2008-04-24, 03:24:00,VALID,915.4,VALID,0,VALID,100,VALID,0.0169808,VALID,19.752,VALID,329,VALID,1.14964,
2008-04-24, 03:25:00,VALID,915.42,VALID,0,VALID,100,VALID,0.0169808,VALID,19.7352,VALID,349,VALID,0.887718,
2008-04-24, 03:26:00,VALID,915.376,VALID,0,VALID,100,VALID,0.0339617,VALID,19.735,VALID,62,VALID,0.907774,
2008-04-24, 03:27:00,VALID,915.346,VALID,0,VALID,100,VALID,0.0169808,VALID,19.7323,VALID,25,VALID,1.0651,
2008-04-24, 03:28:00,VALID,915.355,VALID,0,VALID,100,VALID,0,VALID,19.7485,VALID,38,VALID,1.60918,
2008-04-24, 03:29:00,VALID,915.355,VALID,0,VALID,100,VALID,0.0509425,VALID,19.7647,VALID,34,VALID,1.7941,
2008-04-24, 03:30:00,VALID,915.355,VALID,0,VALID,100,VALID,0,VALID,19.7749,VALID,32,VALID,0.971181,
2008-04-24, 03:31:00,VALID,915.365,VALID,0,VALID,100,VALID,0.0509425,VALID,19.7739,VALID,18,VALID,0.56612,
2008-04-24, 03:32:00,VALID,915.402,VALID,0,VALID,100,VALID,0.0509425,VALID,19.7837,VALID,33,VALID,1.42597,
2008-04-24, 03:33:00,VALID,915.39,VALID,0,VALID,100,VALID,0.0509425,VALID,19.7612,VALID,2,VALID,1.25994,
2008-04-24, 03:34:00,VALID,915.4,VALID,0,VALID,100,VALID,0.0509425,VALID,19.7517,VALID,20,VALID,1.631,
2008-04-24, 03:35:00,VALID,915.439,VALID,0,VALID,100,VALID,0,VALID,19.7422,VALID,301,VALID,0.615451,
2008-04-24, 03:36:00,VALID,915.399,VALID,0,VALID,100,VALID,0.0169808,VALID,19.7385,VALID,17,VALID,0.900112,
2008-04-24, 03:37:00,VALID,915.373,VALID,0,VALID,100,VALID,0.0339617,VALID,19.7457,VALID,356,VALID,1.09323,
2008-04-24, 03:38:00,VALID,915.341,VALID,0,VALID,100,VALID,0,VALID,19.7263,VALID,37,VALID,0.763494,
2008-04-24, 03:39:00,VALID,915.343,VALID,0,VALID,100,VALID,0.0679233,VALID,19.7125,VALID,67,VALID,0.235102,
2008-04-24, 03:40:00,VALID,915.291,VALID,0,VALID,100,VALID,0,VALID,19.7298,VALID,24,VALID,1.86097,
2008-04-24, 03:41:00,VALID,915.289,VALID,0,VALID,100,VALID,0.0169808,VALID,19.7228,VALID,360,VALID,1.0545,
2008-04-24, 03:42:00,VALID,915.276,VALID,0,VALID,100,VALID,0.0339617,VALID,19.722,VALID,250,VALID,0.166349,
2008-04-24, 03:43:00,VALID,915.267,VALID,0,VALID,100,VALID,0.0169808,VALID,19.709,VALID,355,VALID,1.41109,